This is the latest recevied weather packets stored in our database for station/object KB3VSP. If no packets are shown the sender has not sent any weather packets the latest 10 day(s).
| Time | Temp. | Humidity | Pressure | Rain* | Wind** | Luminosity | Snow |
|---|---|---|---|---|---|---|---|
| 1778051032 | 13.33° C | 99% | 1006.6 hPa | 0 mm | - | 0 W/m² | - |
| 1778050729 | 13.89° C | 99% | 1006.8 hPa | 0 mm | - | 0 W/m² | - |
| 1778050427 | 13.89° C | 99% | 1006.9 hPa | 0 mm | - | 0 W/m² | - |
| 1778050124 | 13.89° C | 99% | 1007.1 hPa | 1.27 mm | - | 0 W/m² | - |
| 1778049819 | 13.89° C | 99% | 1007.2 hPa | 1.27 mm | - | 0 W/m² | - |
| 1778049516 | 13.89° C | 99% | 1006.9 hPa | 1.27 mm | - | 0 W/m² | - |
| 1778049214 | 13.89° C | 99% | 1007.1 hPa | 1.78 mm | - | 0 W/m² | - |
| 1778048912 | 13.89° C | 99% | 1007.3 hPa | 0 mm | - | 0 W/m² | - |
| 1778048609 | 13.89° C | 99% | 1007.4 hPa | 1.27 mm | - | 0 W/m² | - |
| 1778048305 | 13.89° C | 99% | 1007.2 hPa | 1.27 mm | - | 0 W/m² | - |
| 1778048002 | 13.89° C | 99% | 1007.4 hPa | 1.78 mm | - | 0 W/m² | - |
| 1778047700 | 13.89° C | 99% | 1007.4 hPa | 1.78 mm | - | 0 W/m² | - |
| 1778047398 | 13.89° C | 99% | 1007.4 hPa | 1.78 mm | - | 0 W/m² | - |
| 1778047094 | 13.89° C | 99% | 1007.6 hPa | 3.05 mm | - | 0 W/m² | - |
| 1778046792 | 13.89° C | 99% | 1007.8 hPa | 1.27 mm | - | 0 W/m² | - |
| 1778046489 | 14.44° C | 99% | 1008.1 hPa | 0 mm | - | 0 W/m² | - |
| 1778046186 | 14.44° C | 99% | 1008 hPa | 1.78 mm | - | 0 W/m² | - |
| 1778045882 | 14.44° C | 99% | 1008.1 hPa | 3.05 mm | - | 0 W/m² | - |
| 1778045581 | 14.44° C | 99% | 1008.1 hPa | 1.27 mm | - | 0 W/m² | - |
| 1778045278 | 14.44° C | 99% | 1008.3 hPa | 1.78 mm | - | 0 W/m² | - |
| 1778044976 | 14.44° C | 99% | 1008.4 hPa | 3.05 mm | - | 0 W/m² | - |
| 1778044668 | 14.44° C | 99% | 1008.3 hPa | 1.27 mm | - | 0 W/m² | - |
| 1778044364 | 14.44° C | 98% | 1008.6 hPa | 0 mm | - | 0 W/m² | - |
| 1778044062 | 14.44° C | 98% | 1008.7 hPa | 1.78 mm | - | 0 W/m² | - |
| 1778043759 | 14.44° C | 98% | 1008.6 hPa | 1.78 mm | - | 0 W/m² | - |
* Rain latest hour (hover to see other rain measurements)
** Current wind speed in m/s (hover to see current wind gust speed)